Regional Weather Roundup
Issued by NWS

Home | Current Version | Previous Version | Text Only | Print | Product List | Glossary On
Versions: 1 2 3 4 5 6 7 8 9 10 11 12 13 14 15 16 17 18 19 20 21 22 23 24 25 26 27 28 29 30 31 32 33 34 35 36 37 38 39 40 41 42 43 44 45 46 47 48 49 50
000
ASUS46 KSTO 171315
RWRCA

NORTHERN AND CENTRAL CA REGIONAL WEATHER ROUNDUP
NATIONAL WEATHER SERVICE SACRAMENTO CA
500 AM PST WED JAN 17 2018

NOTE: FAIR INDICATES FEW OR NO CLOUDS BELOW 12,000 FEET WITH NO
SIGNIFICANT WEATHER AND/OR OBSTRUCTIONS TO VISIBILITY.

CAZ001-003-171400-
NORTHWEST AREA

CITY           SKY/WX    TMP DP  RH WIND       PRES   REMARKS
CRESCENT CITY  PTCLDY    55  48  77 S12       30.11F
UKIAH          CLOUDY    51  49  92 CALM      30.22F
$$

CAZ006-505>513-171400-
BAY AREA

CITY           SKY/WX    TMP DP  RH WIND       PRES   REMARKS
SANTA ROSA     FOG       53  53 100 N3        30.20F VSB 1/2
SAN RAFAEL     N/A       53  MM  MM MISG
NAPA           CLOUDY    48  47  96 NW5       30.22F FOG
CONCORD        FOG       51  50  96 CALM      30.23S VSB 1/4
OAKLAND CITY   N/A      MM  MM  MM MISG
OAKLAND        CLOUDY    51  51 100 CALM      30.22F
SAN FRAN CITY  N/A       54  MM  92 MISG
SAN FRAN ARPT  CLOUDY    55  52  89 CALM      30.22S
LIVERMORE      CLOUDY    49  49 100 CALM      30.21F FOG
HAYWARD        CLOUDY    52  47  83 CALM      30.21F
REDWOOD CITY   N/A       55  MM  94 MISG
MOFFETT ARPT   CLOUDY    53  53 100 CALM      30.22F
SAN JOSE ARPT  CLOUDY    57  54  89 CALM      30.21F
$$
CAZ034-037-514>518-171400-
CENTRAL COAST

CITY           SKY/WX    TMP DP  RH WIND       PRES   REMARKS
WATSONVILLE    FOG       47  46  97 CALM      30.21F VSB 1/2
SALINAS        FOG       52  52 100 E5        30.22R VSB 1/4
MONTEREY       FOG       49  49 100 CALM      30.21F VSB 1
SAN LUIS OBISP CLEAR     47  46  97 E3        30.17S
SANTA MARIA    FOG       49  49 100 CALM      30.18R VSB 1/4
$$
CAZ015-016-171400-
NORTHERN SACRAMENTO VALLEY

CITY           SKY/WX    TMP DP  RH WIND       PRES   REMARKS
REDDING        CLOUDY    52  51  97 CALM      30.23R
RED BLUFF      CLOUDY    51  50  96 CALM      30.24R
OROVILLE       MOCLDY    49  49 100 E3        30.26R
$$
CAZ016>018-171400-
SOUTHERN SACRAMENTO VALLEY

CITY           SKY/WX    TMP DP  RH WIND       PRES   REMARKS
AUBURN         PTCLDY    48  45  87 E3        30.23S
BEALE AFB      FOG       50  50  98 S6        30.23R VSB 1/8
LINCOLN        CLOUDY    23  23 100 CALM      30.24R VSB 1/2
MARYSVILLE     FOG       49  48  97 S3        30.26R VSB 1/4
SAC INTL ARPT  FOG       48  48 100 S3        30.24S VSB 1/8
MATHER AIRPORT CLOUDY    52  52 100 CALM      30.24S VSB 1/2
DOWNTOWN SAC   N/A       51  MM  MM MISG
SAC EXEC ARPT  CLOUDY    50  50 100 CALM      30.24F FOG
VACAVILLE      FOG       47  47 100 CALM      30.26R VSB 1/4
TRAVIS AFB     FOG       45  45 100 NE7       30.23R VSB 1/2
$$
CAZ019>021-171400-
SAN JOAQUIN VALLEY

CITY           SKY/WX    TMP DP  RH WIND       PRES   REMARKS
STOCKTON       CLOUDY    54  53  97 CALM      30.23F FOG
MODESTO        FOG       52  52 100 CALM      30.24S VSB 1
MERCED         CLOUDY    52  50  93 CALM      30.25R FOG
FRESNO         FOG       49  48  97 E5        30.26R VSB 1/8
HANFORD        CLOUDY    50  49  96 S3        30.27R FOG
PORTERVILLE    LGT RAIN  47  47 100 E5        30.27R VSB 1/2
BAKERSFIELD    FOG       50  48  93 NW6       30.24R VSB 1/4
$$
CAZ011-012-071-171400-
NORTHERN MOUNTAINS

CITY           SKY/WX    TMP DP  RH WIND       PRES   REMARKS
YREKA          CLOUDY    39  39 100 NE5       30.19S
MOUNT SHASTA   CLOUDY    47  44  90 E5        30.21F
ALTURAS        MOCLDY    32  31  96 CALM      30.23F
$$
CAZ011-012-071-171400-
SIERRA NEVADA MTNS

CITY           SKY/WX    TMP DP  RH WIND       PRES   REMARKS
BLUE CANYON    CLOUDY    46  37  71 SE5       30.30R
TRUCKEE        FOG       27  27 100 CALM      30.32R VSB 1/2
TAHOE VLY ARPT PTCLDY    27  25  92 S3        30.32R
MAMMOTH LAKES  FAIR      23  20  89 CALM      30.36R
$$



USA.gov is the U.S. government's official web portal to all federal, state and local government web resources and services.